www.pogodaiklimat.ru

Погода и климат >> Архив погоды >> Украина >> Хуст


ПОГОДА в Хусте

  • Прогноз погоды в Хусте
  • Монитор погоды в Хусте

АРХИВ ПОГОДЫ в Хусте

Время (UTC), дата Ветер
(напр.,м/с)
 
Видим.   Явления Облачность Т
(С)
Тd
(С)
f
(%)
Тe
(С)
Тes
(С)
Комфортность P
(гПа)
Po
(гПа)
Тmin
(С)
Tmax
(С)
R
(мм)
R24
(мм)
S
(см)
00 9.06 СВ 1 10 км ясно +17.6 +16.1 91 +19 +19 1021.4 999.8
03 9.06 штиль 0 4000 м дымка 3/0
[Ac trans]
+16.6 +15.8 95 +16 +17 1022.8 1001.1
06 9.06 СВ 1 10 км ясно +20.4 +16.4 78 +25 +32 комфорт 1023.1 1001.7 +16.4
09 9.06 В 1 10 км ясно +26.3 +18.7 63 +31 +51 опасность
солнечного
удара
1022.6 1001.6
12 9.06 З 1 10 км 3/3 1000 м
[Cu med, cong]
+28.0 +19.0 58 +33 +47 очень
душно
1020.9 1000.0
15 9.06 З 2 10 км 8/8 1000 м
[Cu med, cong]
+29.9 +19.3 53 +36 +37 очень
душно
1019.2 998.5
18 9.06 СВ 1 10 км 4/4 1000 м
[Cu med, cong]
+26.8 +17.6 57 +31 +31 душно 1019.4 998.5 +31.0
21 9.06 В 1 10 км 3/0
[Ac trans]
+22.5 +16.3 68 +27 +27 душно 1020.2 999.0
00 10.06 СВ 1 10 км ясно +18.7 +15.7 83 +21 +21 комфорт 1021.4 999.9
03 10.06 В 1 10 км ясно +16.8 +15.0 89 +18 +18 1021.3 999.6
06 10.06 СВ 1 10 км ясно +19.7 +16.0 79 +23 +31 комфорт 1021.0 999.5 +16.6
09 10.06 штиль 0 10 км ясно +27.2 +16.8 53 +31 +53 опасность
солнечного
удара
1019.3 998.4
12 10.06 В 1 10 км 3/3 1000 м
[Cu med, cong]
+31.1 +17.4 44 +35 +48 очень
душно
1016.8 996.2
15 10.06 ЮЗ 1 10 км 8/5 600 м
[Cb cap Ci fib]
+31.4 +14.9 37 +34 +37 душно 1015.0 994.5
18 10.06 С 1 10 км {гроза, ливн. осадки} 9/8 1000 м
[Cu med, cong Ac trans Ci fib]
+22.7 +19.7 83 +29 +29 очень
душно
1016.4 995.3 +32.0 1
21 10.06 СЗ 1 10 км 1/0
[Ac trans]
+20.3 +18.4 89 +25 +25 комфорт 1016.8 995.5
00 11.06 СВ 1 10 км ясно +18.6 +17.1 91 +21 +21 комфорт 1017.5 996.0
03 11.06 В 1 1000 м дымка ясно +16.8 +15.8 94 +18 +18 1017.3 995.7
06 11.06 В 1 10 км ясно +19.6 +18.1 91 +23 +31 комфорт 1017.6 996.2 +16.5
09 11.06 штиль 0 10 км ясно +27.8 +17.9 55 +32 +55 опасность
солнечного
удара
1016.2 995.4
12 11.06 В 1 10 км 8/6 600 м
[Cb calv Ci fib]
+32.2 +16.5 39 +35 +42 очень
душно
1013.7 993.3
15 11.06 СВ 2 10 км {гроза, ливн. осадки} 9/5 600 м
[Cb calv Ac trans Ci fib]
+21.5 +17.7 79 +26 +28 душно 1015.7 994.5
18 11.06 СВ 1 10 км {гроза, ливн. осадки} 9/3 600 м
[Cb calv Ac trans Ci fib]
+21.7 +17.9 79 +26 +26 душно 1016.0 994.8 +32.2 1
21 11.06 В 1 10 км 7 баллов +20.0 +18.1 89
00 12.06 В 1 10 км 9/0
[Ac trans Ci fib]
+18.1 +16.8 92 +19 +19 1016.7 995.2
03 12.06 В 1 10 км 9 баллов +18.0 +16.2 89
06 12.06 В 2 10 км 6/0
[Ac trans Ci fib]
+20.8 +17.0 79 +25 +30 комфорт 1016.6 995.3 +18.0
09 12.06 Ю 2 10 км 2 балла +27.2 +17.6 56
12 12.06 З 2 10 км 6/6 1000 м
[Cu med, cong]
+31.0 +15.8 40 +34 +40 душно 1014.0 993.5
15 12.06 В 3 10 км гроза без осадков 9/5 600 м
[Cb cap Ac trans Ci fib]
+27.7 +17.7 54 +32 +33 очень
душно
1015.0 994.2
18 12.06 ЮВ 1 10 км {гроза} 6/1 1000 м
[Cu med, cong Ac trans Ci fib]
+23.9 +17.6 68 +28 +28 душно 1016.0 994.9 +32.0
21 12.06 С 1 10 км ясно +19.8 +17.0 84 +23 +23 комфорт 1016.0 994.7
00 13.06 С 1 10 км ясно +17.6 +15.4 87 +19 +19 1016.6 995.1
03 13.06 СВ 1 10 км ясно +16.5 +14.9 90 +17 +17 1017.8 996.2
06 13.06 В 1 10 км ясно +19.0 +15.5 80 +21 +29 комфорт 1017.6 996.2 +16.4
09 13.06 В 1 10 км ясно +25.9 +17.8 61 +30 +50 душно 1016.8 995.9
12 13.06 ЮВ 1 10 км 3/3 1000 м
[]
+31.0 +17.3 44 +35 +48 очень
душно
1015.3 994.7
15 13.06 ЮВ 1 10 км 4/3 1000 м
[Cu med, cong Ac trans Ci fib]
+32.2 +18.0 43 +37 +41 очень
душно
1014.3 993.8
18 13.06 Ю 1 10 км ясно +28.5 +18.6 55 +34 +34 очень
душно
1014.5 993.8 +32.5
21 13.06 В 1 10 км ясно +22.3 +17.9 76 +27 +27 душно 1016.2 995.0
00 14.06 В 1 10 км ясно +19.8 +17.0 84 +23 +23 комфорт 1017.9 996.5
03 14.06 СЗ 1 10 км ясно +18.0 +16.2 89 +19 +19 1017.7 996.2
06 14.06 СВ 1 10 км ясно +21.3 +17.7 80 +25 +33 комфорт 1018.7 997.4 +18.0
09 14.06 В 1 10 км ясно +28.4 +18.2 54 +33 +53 опасность
солнечного
удара
1017.9 997.1
12 14.06 З 2 10 км 3/3 1000 м
[Cu med, cong]
+32.4 +16.2 38 +35 +47 душно 1016.9 996.4
15 14.06 СВ 3 10 км 9/5 600 м
[Cb cap Ac trans Ci fib]
+29.7 +15.0 41 +32 +34 душно 1017.0 996.3
18 14.06 ЮВ 2 10 км 9/6 600 м
[Cb cap Ac trans]
+23.4 +16.4 65 +28 +28 душно 1018.4 997.3 +34.0
21 14.06 В 2 10 км 7 баллов +20.8 +16.4 76
00 15.06 В 1 10 км 9/0
[Ac trans Ci fib]
+18.6 +15.8 84 +21 +21 комфорт 1018.7 997.2
03 15.06 СВ 1 10 км 7 баллов +17.1 +15.3 89
06 15.06 ЮВ 2 10 км ясно +21.5 +17.1 76 +16.8
09 15.06 ЮВ 1 10 км ясно +27.3 +17.2 54
12 15.06 СЗ 1 10 км ясно +32.4 +18.9 45
15 15.06 З 2 10 км 2 балла +33.0 +15.5 35
18 15.06 штиль 0 10 км 9 баллов +29.6 +20.7 59 +33.2
21 15.06 штиль 0 10 км ясно +23.3 +18.4 74

 

Местоположение метеостанции Хуст (Закарпатская область, Украина): широта 48.18 долгота 23.45 высота над уровнем моря 182 м.

В архиве по умолчанию представлена погода в Хусте за последнюю неделю. Архивные данные за месяц целиком и за предыдущие месяцы, начиная с января 2011 года, Вы можете получить, выбрав интересующий диапазон дат из раскрывающегося списка и нажав кнопку "Ввод!".


*Определитесь, кто Вы:
робот инопланетянин человек

Внимание! Время в таблицах - всемирное. Для получения местного времени необходимо прибавить поправку, которая равна 2 ч.

Смотрите также архив погоды в соседних городах и на ближайших метеорологических станциях:

Погода в Сигету-Мармацией (Румыния) (45 км)
Погода в Бая-Маре (Румыния) (58 км)
Погода в Нижнем Студеном (Закарпатская область, Украина) (58 км)
Погода в Плае (Черновицкая область, Украина) (59 км)
Погода в Окна Сугатаг (Румыния) (62 км)
Погода в Берегове (Закарпатская область, Украина) (63 км)
Погода в Рахове (Закарпатская область, Украина) (65 км)
Погода в Сату-Маре (Румыния) (66 км)
Погода в Ясине (Закарпатская область, Украина) (69 км)
Погода на Пожежевской (Ивано-Франковская область, Украина) (78 км)

Пояснения к столбцам:

Ветер - указаны скорость ветра в м/с - средняя за 10 мин, порывы в срок и между сроками (в фигурных скобках) и направление, откуда дует ветер: С - северный, СВ - северо-восточный, В - восточный, ЮВ - юго-восточный, Ю - южный, ЮЗ - юго-западный, З - западный, СЗ - северо-западный.
Видимость - горизонтальная дальность видимости в метрах или километрах. При видимости от 1 до 10 км при отсутствии осадков обычно наблюдается дымка, при ухудшении видимости до 1 км и менее - туман. В сухую погоду видимость может ухудшаться дымом, пылью или мглою.
Явления - указаны атмосферные явления, наблюдавшиеся в срок или в последний час перед сроком; фигурными скобками обозначены явления, наблюдавшиеся между сроками (за 1-3 часа до срока); квадратными скобками обозначены град или гололедные отложения с указанием их диаметра в мм.
Облачность - указаны через наклонную черту общая и нижняя облачность в баллах и высота нижней границы облаков в метрах; квадратными скобками обозначены формы облаков: Ci - перистые, Cs - перисто-слоистые, Cc - перисто-кучевые, Ac - высококучевые, As - высокослоистые, Sc - слоисто-кучевые, Ns - слоисто-дождевые, Cu - кучевые, Cb - кучево-дождевые. Подробнее классификацию облаков см. в Атласе облаков (PDF).
T - Температура воздуха - температура, измеренная на высоте 2 м над землей.
Td - Температура точки росы - температура, при понижении до которой содержащийся в воздухе водяной пар достигнет насыщения.
f - Относительная влажность воздуха - влажноcть воздуха, измеренная на высоте 2 м над землей.
Te - Эффективная температура - температура, которую ощущает одетый по сезону человек в тени. Характеристика душности погоды. При расчете учитывается влияние влажности воздуха и скорости ветра на теплоощущения человека.
Tes - Эффективная температура на солнце - температура, которую ощущает человек, с поправкой на солнечный нагрев. Характеристика знойности погоды. Зависит от высоты солнца над горизонтом, облачности и скорости ветра. Ночью, в пасмурную погоду, а также при ветре 12 м/с и более поправка равна нулю.
P - Атмосферное давление - приведенное к уровню моря атмосферное давление.
Po - Атмосферное давление - измеренное на уровне метеостанции атмосферное давление.
Tmin - Минимальная температура - минимум температуры воздуха на высоте 2 м над землей.
Tmax - Максимальная температура - максимум температуры воздуха на высоте 2 м над землей.
R - Количество осадков - Количество выпавших осадков за период времени, мм. При наведении курсора мыши на число - период времени, за который выпало указанное количество осадков.
R24 - Количество осадков - Количество выпавших осадков за 24 часа, мм.
S - Снежный покров - Высота снежного покрова, см. При наведении курсора мыши на число - состояние снежного покрова и степень покрытия местности в баллах.